Location: Breitenfeld
(46.8500°N, 15.6333°E)
Time: 06:02:45
(UTC+00:00)

DMSP B5D2-2 - Pass Details

Date: 09 April 2020
Orbit: 791 x 805 km, 98.3° (Epoch: 29 May)

Event Time Altitude Azimuth Distance (km) Brightness Sun altitude
Rises 18:58:28 0° 16° (NNE) 3,304 7.4 -13.7°
Reaches altitude 10° 19:00:50 10° 20° (NNE) 2,372 6.7 -14.0°
Maximum altitude 19:06:02 64° 102° (ESE) 881 4.0 -14.8°
Drops below altitude 10° 19:11:13 10° 183° (S) 2,363 6.3 -15.6°
Sets 19:13:34 0° 187° (S) 3,291 7.0 -15.9°
